Regional Weather Roundup
Issued by NWS

Home | Current Version | Previous Version | Text Only | Print | Product List | Glossary Off
Versions: 1 2 3 4 5 6 7 8 9 10 11 12 13 14 15 16 17 18 19 20 21 22 23 24 25 26 27 28 29 30 31 32 33 34 35 36 37 38 39 40 41 42 43 44 45 46 47 48 49 50

000
ASUS43 KDTX 010810
RWRMI
MICHIGAN HOURLY REGIONAL WEATHER ROUNDUP
NATIONAL WEATHER SERVICE DETROIT/PONTIAC MI
400 AM EDT WED OCT 01 2014

NOTE: "FAIR" INDICATES FEW OR NO CLOUDS BELOW 12,000 FEET WITH NO
SIGNIFICANT WEATHER AND/OR OBSTRUCTION TO VISIBILITY.

MIZ047>049-052>055-059>063-066>070-074>076-081>083-010900-
SOUTHEAST LOWER MICHIGAN

CITY           SKY/WX    TMP DP  RH WIND       PRES   REMARKS
ADRIAN         PTCLDY    48  47  96 CALM      30.03F
ALMA           CLOUDY    51  49  96 NW3       30.05F FOG
ANN ARBOR      CLOUDY    52  49  89 CALM      30.02S
BAD AXE        CLOUDY    56  56 100 NE3       30.03F FOG
CARO           CLOUDY    56  55  99 N3        30.02F FOG
DETROIT CITY   CLOUDY    55  52  89 CALM      30.03F FOG
DETROIT        CLOUDY    54  51  90 N5        30.02F
FLINT          CLOUDY    53  51  93 W7        30.03F FOG
GROSSE ILE     CLOUDY    55  52  88 NW3       30.00F
HILLSDALE      CLOUDY    50  50 100 CALM      30.03S
HOWELL         CLOUDY    51  51  99 CALM      30.02F FOG

CITY           SKY/WX    TMP DP  RH WIND       PRES   REMARKS
JACKSON        CLOUDY    51  49  92 CALM      30.03F
LAMBERTVILLE   CLOUDY    46  45  93 CALM      30.03S
LANSING        CLOUDY    51  49  92 N5        30.04F FOG
LAPEER         FOG       53  52  97 CALM      30.02F VSB 1/4
MASON          CLOUDY    50  49  97 N3        30.03F FOG
MONROE         CLOUDY    50  48  93 CALM      30.01F
MT. CLEMENS    CLOUDY    54  54 100 W5        30.00S
PONTIAC        CLOUDY    52  51  97 NW5       30.01F FOG
PORT HOPE        N/A     57  56  96 NE7       30.02F
PORT HURON     FOG       54  54 100 CALM      30.01F VSB 1
TRI CITIES     CLOUDY    52  51  97 N8        30.05S FOG
TROY           CLOUDY    56  53  89 CALM      30.03F FOG
SAGINAW HB     CLOUDY    54  54 100 NW5       30.03S FOG
$$
MIZ043>046-050>051-056>058-064>065-071>073-077>080-010900-
SOUTHWEST LOWER MICHIGAN

CITY           SKY/WX    TMP DP  RH WIND       PRES   REMARKS
BATTLE CREEK   CLOUDY    52  47  83 NE5       30.03F
BIG RAPIDS     CLOUDY    51  51 100 CALM      30.05F FOG
COLDWATER      CLOUDY    53  49  85 E5        30.02F
FREMONT        CLOUDY    51  49  92 E3        30.04F
GRAND RAPIDS   CLOUDY    53  50  89 NE5       30.05F
IONIA          CLOUDY    51  50  98 N3        30.03F
KALAMAZOO      CLOUDY    52  46  80 E5        30.04F
LUDINGTON      CLOUDY    52  50  93 E3        30.04F
MARSHALL       CLOUDY    50  48  93 CALM      30.03F
MOUNT PLEASANT CLOUDY    50  49  96 N3        30.04F FOG
MUSKEGON       CLOUDY    54  47  77 E7        30.04F
SOUTH HAVEN    CLOUDY    53  51  92 CALM      30.02F
$$
MIZ016>042-010900-
NORTHERN LOWER MICHIGAN

CITY           SKY/WX    TMP DP  RH WIND       PRES   REMARKS
ALPENA         CLOUDY    52  52 100 E5        30.06F FOG
BEAVER ISLAND  CLOUDY    55  52  90 SE3       30.06S
BELLAIRE       CLOUDY    51  49  93 CALM      30.06F
CADILLAC       CLOUDY    48  48 100 CALM      30.05S FOG
CHARLEVOIX     CLOUDY    52  51  98 CALM      30.08F
FRANKFORT      CLOUDY    52  49  90 CALM      30.05F
GAYLORD        CLOUDY    50  49  96 CALM      30.06S FOG
GRAYLING       CLOUDY    50  50 100 E3        30.06F FOG
HARBOR SPRINGS CLOUDY    51  50  95 NE3       30.06F
HOUGHTON LAKE  CLOUDY    49  48  97 NE6       30.06F FOG
OSCODA         CLOUDY    54  54 100 NE5       30.04F FOG
PELLSTON       CLOUDY    51  50  96 CALM      30.07F
TRAVERSE CITY  CLOUDY    52  48  86 CALM      30.05F
$$
MIZ007>008-015-010900-
EASTERN UPPER MICHIGAN

CITY           SKY/WX    TMP DP  RH WIND       PRES   REMARKS
MACKINAC ISLAN CLOUDY    54  52  94 SE5       30.06F
NEWBERRY       CLOUDY    50  48  94 S3        30.06F
S. S. MARIE    CLOUDY    52  47  83 SE3       30.08S
MUNISING         N/A     51  46  83 CALM      30.03F
$$
MIZ004>006-011>014-085-010900-
CENTRAL UPPER MICHIGAN

CITY           SKY/WX    TMP DP  RH WIND       PRES   REMARKS
MANISTIQUE     CLOUDY    55  51  87 SE9       30.04F
SAWYER-GWINN   FOG       46  45  95 S5        30.03F VSB 1
$$
MIZ001>003-009>011-084-010900-
WESTERN UPPER MICHIGAN

CITY           SKY/WX    TMP DP  RH WIND       PRES   REMARKS
IRON MOUNTAIN  CLOUDY    47  46  97 SE5       30.01F FOG
HOUGHTON       CLOUDY    47  44  90 SE10      29.98F
COPPER HARBOR    N/A     51  46  83 SW10G18   29.99F
$$

ABBREVIATIONS USED IN REMARKS
   TC - TEMPERATURE IN CELSIUS
  WCI - WIND CHILL INDEX
   HX - HEAT INDEX
  VSB - VISIBILITY



USA.gov is the U.S. government's official web portal to all federal, state and local government web resources and services.